www.pogodaiklimat.ru

Погода и климат >> Архив погоды >> Мали >> Bamako


ПОГОДА в Bamako

  • Прогноз погоды в Bamako
  • Монитор погоды в Bamako
  • Климат города

АРХИВ ПОГОДЫ в Bamako

Время (UTC), дата Ветер
(напр.,м/с)
 
Видим.   Явления Облачность Т
(С)
Тd
(С)
f
(%)
Тe
(С)
Тes
(С)
Комфортность P
(гПа)
Po
(гПа)
Тmin
(С)
Tmax
(С)
R
(мм)
R24
(мм)
S
(см)
06 16.01 СВ 2 8000 м пыль 3/0
[Ci sp]
+10.5 +4.7 67 +9 +9 1011.8 970.3 +10.5
09 16.01 СВ 2 6000 м пыль 3/0
[Ci sp]
+22.2 -0.6 22 +21 +26 комфорт 1013.1 971.5
12 16.01 В 2 10 км 3/0
[Ci sp]
+31.5 +4.2 18 +29 +43 жарко 1012.3 971.1
15 16.01 В 2 10 км 5/0
[Ci sp]
+35.0 +3.1 14 +32 +41 жарко 1010.4 969.3
18 16.01 штиль 0 10 км 4/0
[Ci sp]
+31.0 +3.5 17 +31 +31 жарко 1010.9 969.4 +35.5
21 16.01 СВ 1 10 км 3/0
[Ci sp]
+20.5 +5.2 37 +22 +22 комфорт 1011.7 970.2
00 17.01 СЗ 1 10 км 4/0
[Ci sp]
+16.6 +7.7 56 +18 +18 1011.9 970.8
03 17.01 С 2 8000 м пыль 4/0
[Ci sp]
+19.5 +7.7 46 +21 +21 комфорт 1010.9 970.2
06 17.01 С 3 8000 м пыль 4/0
[Ci sp]
+20.0 +1.6 29 +20 +20 1011.3 970.4 +16.9
09 17.01 С 4 10 км 3/0
[Ci sp]
+22.5 -0.4 22 +22 +25 комфорт 1012.9 971.4
12 17.01 СВ 3 10 км ясно +28.6 +1.1 17 +26 +39 жарко 1012.9 971.6
15 17.01 С 2 10 км ясно +32.8 +2.4 15 +30 +39 жарко 1010.5 969.7
18 17.01 СВ 2 8000 м пыль 3/0
[Ci sp]
+30.0 +3.4 18 +31 +31 жарко 1010.2 969.3 +33.5
21 17.01 С 3 6000 м пыль 4/0
[Ci sp]
+26.3 +3.1 22 +25 +25 комфорт 1012.4 971.3
00 18.01 С 5 6000 м пыль 4/0
[Ci sp]
+25.8 +0.6 19 +24 +24 комфорт 1012.7 972.0
03 18.01 С 4 6000 м пыль 3/0
[Ci sp]
+22.5 +1.5 25 +22 +22 комфорт 1012.3 971.6
06 18.01 С 4 8000 м пыль 3/0
[Ci sp]
+20.0 +2.0 30 +20 +20 1012.8 971.8 +20.0
09 18.01 СВ 6 10 км ясно +20.8 +2.4 30 +21 +23 комфорт 1014.5 973.2
12 18.01 СВ 5 10 км ясно +27.1 +3.3 22 +26 +34 жарко 1013.8 972.9
15 18.01 СВ 4 10 км ясно +31.0 +4.2 18 +29 +35 жарко 1011.5 970.8
18 18.01 СВ 3 8000 м пыль ясно +29.7 +3.9 19 +28 +28 жарко 1011.5 970.5 +31.5
21 18.01 С 3 8000 м пыль 1/0
[Ci sp]
+23.8 +5.1 30 +24 +24 комфорт 1013.4 972.0
00 19.01 СВ 4 8000 м пыль 3/0
[Ci sp]
+23.0 +2.4 26 +23 +23 комфорт 1013.8 972.7
03 19.01 С 4 8000 м пыль 3/0
[Ci sp]
+20.4 +2.3 30 +21 +21 комфорт 1012.9 971.9
06 19.01 С 3 8000 м пыль 3/0
[Ci sp]
+18.6 +2.4 34 +19 +19 1013.4 972.2 +18.6
09 19.01 СВ 6 8000 м пыль 1/0
[Ci sp]
+21.4 +1.1 26 +21 +23 комфорт 1015.0 973.5
12 19.01 СВ 7 8000 м пыль 1/0
[Ci sp]
+27.7 -1.1 15 +25 +29 комфорт 1013.8 972.7
15 19.01 СВ 2 8000 м пыль 1/0
[Ci sp]
+31.5 +1.6 15 +29 +38 жарко 1011.1 970.3
18 19.01 СВ 3 8000 м пыль ясно +30.5 +3.5 18 +28 +28 жарко 1010.6 969.7 +32.5
21 19.01 СВ 3 8000 м пыль ясно +30.5 +3.5 18 +28 +28 жарко 1010.6 969.7 +32.5
00 20.01 С 1 8000 м пыль 3/0
[Ci sp]
+19.3 +8.1 48 +21 +21 комфорт 1013.0 971.8
03 20.01 С 3 8000 м пыль 3/0
[Ci sp]
+20.2 +0.3 26 +21 +21 комфорт 1011.8 970.9
06 20.01 СВ 3 8000 м пыль 3/0
[Ci sp]
+18.2 +2.1 34 +18 +18 1011.9 970.8 +18.2
09 20.01 С 3 8000 м пыль 3/0
[Ci sp]
+20.2 +0.3 26 +21 +25 комфорт 1011.8 970.9
12 20.01 СВ 4 >70 км пыль 5/0
[Ci sp]
+27.3 0.0 17 +25 +34 комфорт 1013.7 972.4
15 20.01 СВ 4 8000 м пыль 5/0
[Ci sp]
+31.7 +0.1 13 +29 +34 жарко 1010.7 969.8
18 20.01 СВ 4 >70 км пыль 5/0
[Ci sp]
+27.3 0.0 17 +25 +25 комфорт 1013.7 972.4
21 20.01 СВ 3 8000 м пыль 5/0
[Ci sp]
+24.0 +2.7 25 +23 +23 комфорт 1012.4 971.2
00 21.01 С 5 8000 м пыль 5/0
[Ci sp]
+16.8 +4.6 44 +16 +16 1013.6 972.2
03 21.01 СВ 6 8000 м пыль 4/0
[Ci sp]
+23.0 -3.0 17 +21 +21 комфорт 1012.3 971.6
06 21.01 СВ 5 8000 м пыль 4/0
[Ci sp]
+20.6 -2.9 20 +20 +20 1013.2 972.2 +15.4
09 21.01 СВ 7 2000 м пыль 3/0
[Ci sp]
+22.5 -2.9 18 +21 +23 комфорт 1015.3 973.8
12 21.01 СВ 5 2000 м пыль 3/0
[Ci sp]
+27.0 -0.3 17 +25 +32 комфорт 1014.9 973.4
15 21.01 СВ 5 4000 м пыль 3/0
[Ci sp]
+31.4 -1.7 12 +28 +33 жарко 1011.4 970.7
18 21.01 СВ 4 6000 м пыль 4/0
[Ci sp]
+30.0 -1.3 13 +27 +27 жарко 1011.3 970.4 +32.5
21 21.01 СВ 2 8000 м пыль 4/0
[Ci sp]
+24.3 +2.2 24 +23 +23 комфорт 1013.8 972.5
00 22.01 СВ 4 8000 м пыль 4/0
[Ci sp]
+23.7 -0.1 21 +23 +23 комфорт 1013.5 972.5
03 22.01 СВ 5 8000 м пыль 1/0
[Ci sp]
+22.0 -3.6 18 +21 +21 комфорт 1012.2 971.5
06 22.01 СВ 5 8000 м пыль 4/0
[Ci sp]
+20.0 -3.9 20 +20 +20 1012.7 971.7 +20.0
09 22.01 СВ 7 8000 м пыль 4/0
[Ci sp]
+21.5 -3.1 19 +21 +22 комфорт 1014.5 973.1
12 22.01 СВ 5 6000 м пыль 5/0
[Ci sp]
+27.5 -1.2 15 +25 +32 комфорт 1012.9 972.0
15 22.01 СВ 4 8000 м пыль 5/0
[Ci fib]
+32.0 +1.7 15 +29 +35 жарко 1010.2 969.5
18 22.01 СВ 3 8000 м пыль 5/0
[Ci sp]
+30.6 +0.9 15 +28 +28 жарко 1010.8 969.8 +32.5
21 22.01 СВ 2 10 км 5/0
[Ci sp]
+25.5 +0.3 19 +24 +24 комфорт 1012.4 971.1
00 23.01 СВ 3 10 км 5/0
[Ci sp]
+22.5 +0.8 24 +22 +22 комфорт 1012.4 971.3

 

Местоположение метеостанции Bamako (Мали): широта 12.53 долгота -7.95 высота над уровнем моря 381 м.

В архиве по умолчанию представлена погода в Bamako за последнюю неделю. Архивные данные за месяц целиком и за предыдущие месяцы, начиная с января 2011 года, Вы можете получить, выбрав интересующий диапазон дат из раскрывающегося списка и нажав кнопку "Ввод!".

Внимание! Время в таблицах - всемирное. Для получения местного времени необходимо прибавить поправку, которая в Bamako равна 0 ч.

Смотрите также архив погоды в соседних городах и на ближайших метеорологических станциях:

Погода в Bougouni (Мали) (133 км)
Погода в Kita (Мали) (175 км)
Погода в Segou (Мали) (218 км)
Погода в Koutiala (Мали) (270 км)
Погода в Sikasso (Мали) (280 км)
Погода в Nara (Мали) (302 км)
Погода в Odienne (Кот-д'Ивуар) (335 км)
Погода в Nioro Du Sahel (Мали) (336 км)
Погода в San (Мали) (350 км)
Погода в Kenieba (Мали) (358 км)

Пояснения к столбцам:

Ветер - указаны скорость ветра в м/с - средняя за 10 мин, порывы в срок и между сроками (в фигурных скобках) и направление, откуда дует ветер: С - северный, СВ - северо-восточный, В - восточный, ЮВ - юго-восточный, Ю - южный, ЮЗ - юго-западный, З - западный, СЗ - северо-западный.
Видимость - горизонтальная дальность видимости в метрах или километрах. При видимости от 1 до 10 км при отсутствии осадков обычно наблюдается дымка, при ухудшении видимости до 1 км и менее - туман. В сухую погоду видимость может ухудшаться дымом, пылью или мглою.
Явления - указаны атмосферные явления, наблюдавшиеся в срок или в последний час перед сроком; фигурными скобками обозначены явления, наблюдавшиеся между сроками (за 1-3 часа до срока); квадратными скобками обозначены град или гололедные отложения с указанием их диаметра в мм.
Облачность - указаны через наклонную черту общая и нижняя облачность в баллах и высота нижней границы облаков в метрах; квадратными скобками обозначены формы облаков: Ci - перистые, Cs - перисто-слоистые, Cc - перисто-кучевые, Ac - высококучевые, As - высокослоистые, Sc - слоисто-кучевые, Ns - слоисто-дождевые, Cu - кучевые, Cb - кучево-дождевые. Подробнее классификацию облаков см. в Атласе облаков (PDF).
T - Температура воздуха - температура, измеренная на высоте 2 м над землей.
Td - Температура точки росы - температура, при понижении до которой содержащийся в воздухе водяной пар достигнет насыщения.
f - Относительная влажность воздуха - влажноcть воздуха, измеренная на высоте 2 м над землей.
Te - Эффективная температура - температура, которую ощущает одетый по сезону человек в тени. Характеристика душности погоды. При расчете учитывается влияние влажности воздуха и скорости ветра на теплоощущения человека.
Tes - Эффективная температура на солнце - температура, которую ощущает человек, с поправкой на солнечный нагрев. Характеристика знойности погоды. Зависит от высоты солнца над горизонтом, облачности и скорости ветра. Ночью, в пасмурную погоду, а также при ветре 12 м/с и более поправка равна нулю.
P - Атмосферное давление - приведенное к уровню моря атмосферное давление.
Po - Атмосферное давление - измеренное на уровне метеостанции атмосферное давление.
Tmin - Минимальная температура - минимум температуры воздуха на высоте 2 м над землей.
Tmax - Максимальная температура - максимум температуры воздуха на высоте 2 м над землей.
R - Количество осадков - Количество выпавших осадков за период времени, мм. При наведении курсора мыши на число - период времени, за который выпало указанное количество осадков.
R24 - Количество осадков - Количество выпавших осадков за 24 часа, мм.
S - Снежный покров - Высота снежного покрова, см. При наведении курсора мыши на число - состояние снежного покрова и степень покрытия местности в баллах.